Погода в Ружине

Украина / Житомирская область     49˚43′23″N   29˚13′16″E
темп.,
°C
ветер,
м/с
пор.,
м/с
влажн.,
%
обл.,
%
осадки,
мм/ч
давл.,
гПа
погр.,
м
6 декабря, вс
вс623:00−1˚юв6128793 0.0 1030470
02:00−2˚юв6118750 0.0 1031402
05:00−3˚юв611771 0.0 1031419
08:00−3˚юв611680 0.0 1032432
11:00−2˚юв611560 0.0 1032461
14:00−1˚вюв610540 0.0 1031473
17:00−3˚вюв612620 0.0 1031447
20:00−4˚вюв613630 0.0 1031482
7 декабря, пн
пн723:00−4˚вюв612690 0.0 1031470
02:00−5˚вюв612730 0.0 1032465
05:00−6˚вюв611730 0.0 1030443
08:00−7˚вюв612740 0.0 1031472
11:00−5˚вюв711630 0.0 1030516
14:00−4˚вюв712640 0.0 1029624
17:00−5˚вюв6127326 0.0 1029596
20:00−5˚вюв6137738 0.0 1028577
8 декабря, вт
вт823:00−4˚вюв7126684 0.0 1028592
02:00−5˚вюв6116674 0.0 1028533
05:00−6˚вюв612710 0.0 1027505
08:00−6˚вюв612811 0.0 1027527
11:00−5˚вюв6107373 0.0 1027631
14:00−4˚вюв697186 0.0 1026698
17:00−5˚вюв5980100 0.0 1026608
20:00−5˚вюв5108795 0.0 1027398
9 декабря, ср
ср923:00−3˚вюв597499 0.0 1027522
02:00−5˚в5108181 0.0 1027361
05:00−6˚в5108043 0.0 1027391
08:00−6˚в598160 0.0 1026414
11:00−4˚в588399 0.1 1027425
14:00−4˚в5992100 0.8 1025421
17:00−4˚вюв5992100 0.4 1025424
20:00−3˚вюв61090100 0.9 1025416
10 декабря, чт
чт1023:00−2˚вюв51090100 0.1 1024399
02:00−2˚вюв61190100 0.3 1024412
05:00−1˚вюв61091100 0.1 1023341
08:00−1˚вюв61294100 0.1 1022397
11:00+2˚вюв71495100 0.0 1022516
14:00+2˚вюв71396100 0.1 1022445
17:00+2˚вюв81496100 1.1 1022499
20:00+1˚вюв81496100 1.9 1022481